Date,TemperatureHighF,TemperatureAvgF,TemperatureLowF,DewpointHighF,DewpointAvgF,DewpointLowF,HumidityHigh,HumidityAvg,HumidityLow,PressureMaxIn,PressureMinIn,WindSpeedMaxMPH,WindSpeedAvgMPH,GustSpeedMaxMPH,PrecipitationSumIn
2013-1-1,20,9,-1,13,5,-4,89,83,72,30.74,30.59,10,1,10,0.00
2013-1-2,19,4,-5,12,0,-9,90,83,70,30.87,30.71,4,0,4,0.00
2013-1-3,23,4,-9,9,-2,-13,89,78,47,30.90,30.80,4,0,4,0.00
2013-1-4,27,7,-6,11,0,-9,91,75,44,30.83,30.67,8,1,8,0.00
2013-1-5,30,11,-2,15,5,-6,91,76,49,30.83,30.62,4,0,4,0.00
2013-1-6,36,19,6,18,10,3,91,73,39,30.62,30.29,5,0,5,0.00
2013-1-7,34,18,2,22,9,-1,90,70,40,30.44,30.33,6,1,6,0.00
2013-1-8,36,31,26,28,26,22,87,81,69,30.46,30.31,12,2,12,0.00
2013-1-9,45,28,11,24,19,9,96,72,39,30.49,29.93,21,3,21,0.01
2013-1-10,41,31,18,28,20,12,93,67,43,29.94,29.44,28,9,28,0.01
2013-1-11,18,14,11,13,9,6,87,79,69,30.17,29.54,13,2,13,0.00
2013-1-12,13,6,-2,8,1,-6,88,80,66,30.41,30.16,14,2,14,0.00
2013-1-13,8,-2,-13,0,-7,-17,85,80,70,30.67,30.41,8,1,8,0.00
2013-1-14,7,-5,-17,-2,-10,-22,85,78,62,30.91,30.67,12,1,12,0.00
2013-1-15,17,10,2,11,4,-2,90,79,71,30.93,30.85,11,2,12,0.00
2013-1-16,24,13,5,17,9,2,89,84,74,30.97,30.86,4,1,4,0.00
2013-1-17,28,10,-3,19,6,-7,92,82,65,31.00,30.84,5,0,5,0.00
2013-1-18,33,14,-1,19,8,-4,93,78,49,30.86,30.69,5,1,5,0.00
2013-1-19,35,17,2,19,10,-1,92,76,48,30.83,30.69,4,1,4,0.00
2013-1-20,35,16,0,16,8,-3,93,74,40,30.75,30.64,7,1,7,0.00
2013-1-21,37,18,3,20,10,0,91,73,42,30.76,30.61,4,1,4,0.00
2013-1-22,39,19,5,19,10,1,92,71,37,30.68,30.55,4,0,4,0.00
2013-1-23,45,25,11,26,15,7,87,70,35,30.60,30.42,4,1,4,0.09
2013-1-24,38,33,26,36,30,20,96,88,76,30.43,30.26,4,0,4,0.29
2013-1-25,40,34,29,35,32,28,98,93,80,30.35,30.17,6,0,6,0.25
2013-1-26,32,30,29,30,29,27,96,95,94,30.18,30.15,1,0,3,0.00
2013-1-27,39,30,24,34,27,18,97,88,71,29.87,29.66,18,3,18,0.09
2013-1-28,24,19,14,19,13,9,87,78,57,30.13,29.86,12,4,12,0.00
2013-1-29,26,18,10,18,13,7,90,80,65,30.39,30.07,14,2,14,0.00
2013-1-30,35,27,20,28,22,16,92,82,74,30.40,30.28,26,6,26,0.01
2013-1-31,36,33,31,26,25,24,84,74,64,30.41,30.32,15,5,17,0.08